Time,TemperatureF,DewpointF,PressureIn,WindDirection,WindDirectionDegrees,WindSpeedMPH,WindSpeedGustMPH,Humidity,HourlyPrecipIn,Conditions,Clouds,dailyrainin,SoftwareType,DateUTC
2013-10-24 00:00:00,37.4,35.0,30.11,West,274,3.0,5.0,89,0.00,,,0.00,weatherlink.com 1.10,2013-10-24 05:00:00,
2013-10-24 00:16:00,37.7,35.0,30.11,NW,304,0.0,5.0,89,0.00,,,0.00,weatherlink.com 1.10,2013-10-24 05:16:00,
2013-10-24 00:30:00,37.8,35.0,30.11,West,281,1.0,3.0,90,0.00,,,0.00,weatherlink.com 1.10,2013-10-24 05:30:00,
2013-10-24 00:45:00,38.0,35.0,30.11,WNW,290,3.0,6.0,90,0.00,,,0.00,weatherlink.com 1.10,2013-10-24 05:45:00,
2013-10-24 01:01:00,38.1,36.0,30.11,WNW,293,2.0,6.0,90,0.00,,,0.00,weatherlink.com 1.10,2013-10-24 06:01:00,
2013-10-24 01:15:00,38.1,36.0,30.12,WNW,285,2.0,4.0,91,0.00,,,0.00,weatherlink.com 1.10,2013-10-24 06:15:00,
2013-10-24 01:31:00,38.2,36.0,30.11,NNW,329,4.0,6.0,91,0.00,,,0.00,weatherlink.com 1.10,2013-10-24 06:31:00,
2013-10-24 01:46:00,38.2,36.0,30.11,NW,314,4.0,7.0,91,0.00,,,0.00,weatherlink.com 1.10,2013-10-24 06:46:00,
2013-10-24 02:00:00,38.4,36.0,30.12,NW,315,5.0,7.0,91,0.00,,,0.00,weatherlink.com 1.10,2013-10-24 07:00:00,
2013-10-24 02:16:00,38.7,36.0,30.12,West,279,3.0,10.0,90,0.00,,,0.00,weatherlink.com 1.10,2013-10-24 07:16:00,
2013-10-24 02:31:00,38.5,36.0,30.12,WSW,255,1.0,6.0,90,0.00,,,0.00,weatherlink.com 1.10,2013-10-24 07:31:00,
2013-10-24 02:46:00,38.2,35.0,30.12,SSE,153,2.0,9.0,89,0.00,,,0.00,weatherlink.com 1.10,2013-10-24 07:46:00,
2013-10-24 03:02:00,38.1,35.0,30.12,WSW,257,3.0,8.0,89,0.00,,,0.00,weatherlink.com 1.10,2013-10-24 08:02:00,
2013-10-24 03:17:00,38.0,35.0,30.13,WNW,286,2.0,6.0,89,0.00,,,0.00,weatherlink.com 1.10,2013-10-24 08:17:00,
2013-10-24 03:33:00,37.9,35.0,30.13,WNW,290,3.0,8.0,88,0.00,,,0.00,weatherlink.com 1.10,2013-10-24 08:33:00,
2013-10-24 03:47:00,37.8,34.0,30.13,NW,321,2.0,5.0,86,0.00,,,0.00,weatherlink.com 1.10,2013-10-24 08:47:00,
2013-10-24 04:01:00,37.7,33.0,30.13,NE,44,1.0,7.0,84,0.00,,,0.00,weatherlink.com 1.10,2013-10-24 09:01:00,
2013-10-24 04:17:00,37.5,31.0,30.14,SSW,201,4.0,8.0,78,0.00,,,0.00,weatherlink.com 1.10,2013-10-24 09:17:00,
2013-10-24 04:32:00,37.3,29.0,30.14,West,270,3.0,8.0,71,0.00,,,0.00,weatherlink.com 1.10,2013-10-24 09:32:00,
2013-10-24 04:48:00,37.1,27.0,30.14,WNW,282,3.0,7.0,67,0.00,,,0.00,weatherlink.com 1.10,2013-10-24 09:48:00,
2013-10-24 05:02:00,36.8,26.0,30.15,WSW,238,0.0,6.0,66,0.00,,,0.00,weatherlink.com 1.10,2013-10-24 10:02:00,
2013-10-24 05:18:00,36.6,26.0,30.15,WNW,288,2.0,6.0,65,0.00,,,0.00,weatherlink.com 1.10,2013-10-24 10:18:00,
2013-10-24 05:32:00,36.5,26.0,30.16,WSW,257,0.0,5.0,65,0.00,,,0.00,weatherlink.com 1.10,2013-10-24 10:32:00,
2013-10-24 05:48:00,36.3,27.0,30.17,West,280,1.0,3.0,70,0.00,,,0.00,weatherlink.com 1.10,2013-10-24 10:48:00,
2013-10-24 06:02:00,36.2,28.0,30.17,West,266,4.0,5.0,71,0.00,,,0.00,weatherlink.com 1.10,2013-10-24 11:02:00,
2013-10-24 06:18:00,36.1,28.0,30.17,NNW,327,2.0,4.0,71,0.00,,,0.00,weatherlink.com 1.10,2013-10-24 11:18:00,
2013-10-24 06:33:00,36.0,27.0,30.18,WNW,297,1.0,4.0,71,0.00,,,0.00,weatherlink.com 1.10,2013-10-24 11:33:00,
2013-10-24 06:49:00,35.8,28.0,30.18,West,276,2.0,4.0,72,0.00,,,0.00,weatherlink.com 1.10,2013-10-24 11:49:00,
2013-10-24 07:04:00,35.2,28.0,30.18,NNW,331,2.0,3.0,75,0.00,,,0.00,weatherlink.com 1.10,2013-10-24 12:04:00,
2013-10-24 07:18:00,35.0,28.0,30.19,NNW,344,1.0,4.0,76,0.00,,,0.00,weatherlink.com 1.10,2013-10-24 12:18:00,
2013-10-24 07:34:00,35.2,28.0,30.19,WNW,302,3.0,5.0,76,0.00,,,0.00,weatherlink.com 1.10,2013-10-24 12:34:00,
2013-10-24 07:49:00,35.6,29.0,30.20,WSW,253,2.0,6.0,76,0.00,,,0.00,weatherlink.com 1.10,2013-10-24 12:49:00,
2013-10-24 10:49:00,40.0,26.0,30.27,SE,134,1.0,7.0,57,0.00,,,0.00,weatherlink.com 1.10,2013-10-24 15:49:00,
2013-10-24 11:04:00,39.8,26.0,30.27,NW,323,3.0,11.0,57,0.00,,,0.00,weatherlink.com 1.10,2013-10-24 16:04:00,
2013-10-24 11:19:00,39.7,26.0,30.27,NE,41,2.0,8.0,59,0.00,,,0.00,weatherlink.com 1.10,2013-10-24 16:19:00,
2013-10-24 11:34:00,39.7,26.0,30.28,WSW,248,2.0,6.0,59,0.00,,,0.00,weatherlink.com 1.10,2013-10-24 16:34:00,
2013-10-24 11:49:00,40.0,26.0,30.29,NW,316,1.0,11.0,58,0.00,,,0.00,weatherlink.com 1.10,2013-10-24 16:49:00,
2013-10-24 12:04:00,40.0,25.0,30.29,WNW,297,2.0,9.0,56,0.00,,,0.00,weatherlink.com 1.10,2013-10-24 17:04:00,
2013-10-24 12:19:00,39.7,25.0,30.29,ESE,102,1.0,9.0,57,0.00,,,0.00,weatherlink.com 1.10,2013-10-24 17:19:00,
2013-10-24 12:34:00,39.9,26.0,30.29,WNW,294,4.0,9.0,57,0.00,,,0.00,weatherlink.com 1.10,2013-10-24 17:34:00,
2013-10-24 13:04:00,40.0,26.0,30.29,West,273,2.0,9.0,57,0.00,,,0.00,weatherlink.com 1.10,2013-10-24 18:04:00,
2013-10-24 13:20:00,40.1,25.0,30.29,WNW,295,2.0,9.0,55,0.00,,,0.00,weatherlink.com 1.10,2013-10-24 18:20:00,
2013-10-24 13:34:00,40.2,25.0,30.29,NW,307,3.0,11.0,56,0.00,,,0.00,weatherlink.com 1.10,2013-10-24 18:34:00,
2013-10-24 13:50:00,40.1,24.0,30.29,WNW,287,2.0,10.0,53,0.00,,,0.00,weatherlink.com 1.10,2013-10-24 18:50:00,
2013-10-24 14:04:00,40.6,24.0,30.29,NNW,338,3.0,13.0,52,0.00,,,0.00,weatherlink.com 1.10,2013-10-24 19:04:00,
2013-10-24 14:19:00,40.8,25.0,30.29,NW,323,4.0,11.0,53,0.00,,,0.00,weatherlink.com 1.10,2013-10-24 19:19:00,
2013-10-24 14:34:00,40.8,25.0,30.30,WSW,253,5.0,9.0,54,0.00,,,0.00,weatherlink.com 1.10,2013-10-24 19:34:00,
2013-10-24 14:49:00,40.8,25.0,30.30,SSE,150,2.0,12.0,54,0.00,,,0.00,weatherlink.com 1.10,2013-10-24 19:49:00,
2013-10-24 15:04:00,40.4,24.0,30.30,WNW,288,4.0,12.0,53,0.00,,,0.00,weatherlink.com 1.10,2013-10-24 20:04:00,
2013-10-24 15:19:00,40.4,25.0,30.31,West,278,3.0,12.0,54,0.00,,,0.00,weatherlink.com 1.10,2013-10-24 20:19:00,
2013-10-24 15:34:00,40.1,25.0,30.32,NW,309,2.0,11.0,56,0.00,,,0.00,weatherlink.com 1.10,2013-10-24 20:34:00,
2013-10-24 15:49:00,40.0,25.0,30.32,WSW,245,3.0,13.0,56,0.00,,,0.00,weatherlink.com 1.10,2013-10-24 20:49:00,
2013-10-24 16:04:00,39.5,26.0,30.32,WNW,287,4.0,9.0,58,0.00,,,0.00,weatherlink.com 1.10,2013-10-24 21:04:00,
2013-10-24 16:19:00,39.3,26.0,30.32,NNW,347,1.0,8.0,59,0.00,,,0.00,weatherlink.com 1.10,2013-10-24 21:19:00,
2013-10-24 16:34:00,39.4,25.0,30.33,West,281,1.0,11.0,57,0.00,,,0.00,weatherlink.com 1.10,2013-10-24 21:34:00,
2013-10-24 16:50:00,39.2,26.0,30.33,WNW,287,2.0,7.0,59,0.00,,,0.00,weatherlink.com 1.10,2013-10-24 21:50:00,
2013-10-24 17:04:00,38.9,25.0,30.33,NNW,330,3.0,12.0,58,0.00,,,0.00,weatherlink.com 1.10,2013-10-24 22:04:00,
2013-10-24 17:19:00,38.7,25.0,30.34,NW,326,2.0,9.0,58,0.00,,,0.00,weatherlink.com 1.10,2013-10-24 22:19:00,
2013-10-24 17:34:00,38.8,25.0,30.34,WSW,252,1.0,10.0,59,0.00,,,0.00,weatherlink.com 1.10,2013-10-24 22:34:00,
2013-10-24 17:49:00,38.3,25.0,30.34,WNW,288,0.0,7.0,58,0.00,,,0.00,weatherlink.com 1.10,2013-10-24 22:49:00,
2013-10-24 18:05:00,37.3,25.0,30.35,WNW,283,1.0,5.0,61,0.00,,,0.00,weatherlink.com 1.10,2013-10-24 23:05:00,
2013-10-24 18:20:00,36.1,25.0,30.34,WSW,248,0.0,1.0,64,0.00,,,0.00,weatherlink.com 1.10,2013-10-24 23:20:00,
2013-10-24 18:35:00,34.2,25.0,30.35,WSW,247,0.0,0.0,70,0.00,,,0.00,weatherlink.com 1.10,2013-10-24 23:35:00,
2013-10-24 18:50:00,32.6,25.0,30.35,WSW,248,0.0,1.0,74,0.00,,,0.00,weatherlink.com 1.10,2013-10-24 23:50:00,
2013-10-24 19:05:00,31.9,25.0,30.35,WSW,248,0.0,0.0,76,0.00,,,0.00,weatherlink.com 1.10,2013-10-25 00:05:00,
2013-10-24 19:20:00,31.3,26.0,30.36,WSW,248,0.0,0.0,81,0.00,,,0.00,weatherlink.com 1.10,2013-10-25 00:20:00,
2013-10-24 19:36:00,30.5,26.0,30.36,WSW,248,0.0,0.0,84,0.00,,,0.00,weatherlink.com 1.10,2013-10-25 00:36:00,
2013-10-24 19:51:00,30.1,26.0,30.36,WSW,248,0.0,0.0,85,0.00,,,0.00,weatherlink.com 1.10,2013-10-25 00:51:00,
2013-10-24 20:05:00,29.9,26.0,30.36,WSW,248,0.0,0.0,86,0.00,,,0.00,weatherlink.com 1.10,2013-10-25 01:05:00,
2013-10-24 20:20:00,29.2,26.0,30.36,WSW,248,0.0,0.0,88,0.00,,,0.00,weatherlink.com 1.10,2013-10-25 01:20:00,
2013-10-24 20:35:00,29.7,26.0,30.37,WSW,247,0.0,0.0,85,0.00,,,0.00,weatherlink.com 1.10,2013-10-25 01:35:00,
2013-10-24 20:50:00,28.8,25.0,30.37,WSW,248,0.0,0.0,87,0.00,,,0.00,weatherlink.com 1.10,2013-10-25 01:50:00,
2013-10-24 21:05:00,28.1,25.0,30.37,WSW,248,0.0,0.0,87,0.00,,,0.00,weatherlink.com 1.10,2013-10-25 02:05:00,
2013-10-24 21:20:00,28.4,26.0,30.37,WSW,248,0.0,0.0,89,0.00,,,0.00,weatherlink.com 1.10,2013-10-25 02:20:00,
2013-10-24 21:36:00,27.8,25.0,30.38,WSW,248,0.0,0.0,90,0.00,,,0.00,weatherlink.com 1.10,2013-10-25 02:36:00,
2013-10-24 21:51:00,27.4,25.0,30.38,WSW,248,0.0,1.0,90,0.00,,,0.00,weatherlink.com 1.10,2013-10-25 02:51:00,
2013-10-24 22:05:00,26.9,25.0,30.38,WSW,248,0.0,0.0,91,0.00,,,0.00,weatherlink.com 1.10,2013-10-25 03:05:00,
2013-10-24 22:20:00,26.8,25.0,30.38,WSW,248,0.0,0.0,91,0.00,,,0.00,weatherlink.com 1.10,2013-10-25 03:20:00,
2013-10-24 22:35:00,26.8,25.0,30.39,WSW,248,0.0,0.0,92,0.00,,,0.00,weatherlink.com 1.10,2013-10-25 03:35:00,
2013-10-24 22:50:00,27.2,25.0,30.39,WSW,248,0.0,1.0,91,0.00,,,0.00,weatherlink.com 1.10,2013-10-25 03:50:00,
2013-10-24 23:06:00,26.9,25.0,30.39,WSW,248,0.0,0.0,92,0.00,,,0.00,weatherlink.com 1.10,2013-10-25 04:06:00,
2013-10-24 23:21:00,27.1,25.0,30.39,WSW,248,0.0,0.0,92,0.00,,,0.00,weatherlink.com 1.10,2013-10-25 04:21:00,
2013-10-24 23:36:00,27.3,25.0,30.39,WSW,248,0.0,0.0,92,0.00,,,0.00,weatherlink.com 1.10,2013-10-25 04:36:00,
2013-10-24 23:51:00,26.6,25.0,30.40,WSW,248,0.0,0.0,92,0.00,,,0.00,weatherlink.com 1.10,2013-10-25 04:51:00,